Weather History for Gwinner, ND

Change the Weather History Date:

Saturday, September 22, 2012

  Actual Average (KP67) Record (KP67)
Temperature  
Mean Temperature 44 °F -  
Max Temperature 55 °F 67 °F 66 °F (1996)
Min Temperature 32 °F 44 °F 44 °F (1997)
Degree Days  
Heating Degree Days 22    
Moisture  
Dew Point 27 °F    
Average Humidity 58    
Maximum Humidity 87    
Minimum Humidity 33    
Precipitation  
Precipitation 0.00 in - - ()
Sea Level Pressure  
Sea Level Pressure 30.27 in    
Wind  
Wind Speed 11 mph (NNW)    
Max Wind Speed 16 mph    
Max Gust Speed 21 mph    
Visibility 10 miles    
Events      
Averages and records for this station are not official NWS values.
T = Trace of Precipitation, MM = Missing Value Source: NWS Daily Summary

Daily Weather History Graph

Daily Weather History Graph

Search for Another Location

Airport:

Trip Planner

Search our weather history database for the weather conditions in past years. The results will help you decide how hot, cold, wet, or windy it might be!

Date:

Astronomy

Sep. 22, 2012 Rise Set
Actual Time 7:18 AM CDT 7:27 PM CDT
Civil Twilight 6:48 AM CDT 7:57 PM CDT
Nautical Twilight 6:12 AM CDT 8:32 PM CDT
Astronomical Twilight 5:36 AM CDT 9:08 PM CDT
Moon 2:57 PM CDT (9/22) No Moon Set
Length of Visible Light 13h 08m
Length of Day
12h 08m
Waxing Crescent, 49% of the Moon is Illuminated
Sep 22
Waxing Crescent
Sep 22
First Quarter
Sep 29
Full
Oct 8
Last Quarter
Oct 15
New

Hourly Weather History & Observations

Time (CDT) Temp. Windchill Dew Point Humidity Pressure Visibility Wind Dir Wind Speed Gust Speed Precip Events Conditions
12:15 AM 37.4 °F 29.3 °F 23.0 °F 56% 30.13 in 10.0 mi NNW 12.7 mph - 0.00 in   Clear
12:35 AM 37.4 °F 28.9 °F 24.8 °F 60% 30.13 in 10.0 mi NNW 13.8 mph - 0.00 in   Clear
12:55 AM 37.4 °F 29.3 °F 24.8 °F 60% 30.14 in 10.0 mi NNW 12.7 mph - 0.00 in   Clear
1:15 AM 37.4 °F 29.8 °F 26.6 °F 65% 30.15 in 10.0 mi NNW 11.5 mph - 0.00 in   Clear
1:35 AM 37.4 °F 29.3 °F 26.6 °F 65% 30.15 in 10.0 mi NNW 12.7 mph - 0.00 in   Clear
1:55 AM 37.4 °F 29.3 °F 26.6 °F 65% 30.16 in 10.0 mi NNW 12.7 mph - 0.00 in   Clear
2:15 AM 37.4 °F 29.3 °F 26.6 °F 65% 30.17 in 10.0 mi NNW 12.7 mph - 0.00 in   Clear
2:35 AM 37.4 °F 29.8 °F 26.6 °F 65% 30.17 in 10.0 mi NNW 11.5 mph - 0.00 in   Clear
2:55 AM 35.6 °F 28.0 °F 26.6 °F 70% 30.18 in 10.0 mi NNW 10.4 mph - 0.00 in   Clear
3:15 AM 35.6 °F 28.0 °F 28.4 °F 75% 30.18 in 10.0 mi NW 10.4 mph - 0.00 in   Clear
3:35 AM 35.6 °F 27.5 °F 28.4 °F 75% 30.19 in 10.0 mi NNW 11.5 mph - 0.00 in   Clear
3:55 AM 35.6 °F 27.5 °F 28.4 °F 75% 30.19 in 10.0 mi NNW 11.5 mph - 0.00 in   Clear
4:15 AM 35.6 °F 27.5 °F 28.4 °F 75% 30.20 in 10.0 mi NNW 11.5 mph - 0.00 in   Clear
4:35 AM 35.6 °F 27.5 °F 28.4 °F 75% 30.21 in 10.0 mi North 11.5 mph - 0.00 in   Clear
4:55 AM 35.6 °F 27.5 °F 28.4 °F 75% 30.21 in 10.0 mi NNW 11.5 mph - 0.00 in   Clear
5:15 AM 33.8 °F 26.4 °F 28.4 °F 81% 30.23 in 10.0 mi NW 9.2 mph - 0.00 in   Clear
5:35 AM 33.8 °F 27.0 °F 28.4 °F 81% 30.24 in 10.0 mi NW 8.1 mph - 0.00 in   Clear
5:55 AM 33.8 °F 27.0 °F 28.4 °F 81% 30.25 in 10.0 mi NW 8.1 mph - 0.00 in   Clear
6:15 AM 33.8 °F 26.4 °F 30.2 °F 87% 30.26 in 10.0 mi NNW 9.2 mph - 0.00 in   Clear
6:35 AM 33.8 °F 26.4 °F 30.2 °F 87% 30.26 in 10.0 mi NNW 9.2 mph - 0.00 in   Clear
6:55 AM 33.8 °F 24.8 °F 30.2 °F 87% 30.27 in 10.0 mi NNW 12.7 mph - 0.00 in   Clear
7:15 AM 32.0 °F 23.0 °F 28.4 °F 87% 30.28 in 10.0 mi NNW 11.5 mph - 0.00 in   Clear
7:35 AM 32.0 °F 23.6 °F 28.4 °F 87% 30.29 in 10.0 mi NNW 10.4 mph - 0.00 in   Clear
8:15 AM 33.8 °F 25.8 °F 30.2 °F 87% 30.30 in 10.0 mi NNW 10.4 mph - 0.00 in   Clear
8:35 AM 35.6 °F 27.5 °F 30.2 °F 81% 30.31 in 10.0 mi NNW 11.5 mph - 0.00 in   Clear
8:55 AM 37.4 °F 29.3 °F 32.0 °F 81% 30.32 in 10.0 mi NNW 12.7 mph - 0.00 in   Clear
9:15 AM 39.2 °F 31.2 °F 32.0 °F 75% 30.32 in 10.0 mi North 13.8 mph 17.3 mph 0.00 in   Clear
9:35 AM 39.2 °F 31.2 °F 32.0 °F 75% 30.33 in 10.0 mi North 13.8 mph - 0.00 in   Clear
9:55 AM 41.0 °F 33.5 °F 32.0 °F 70% 30.34 in 10.0 mi North 13.8 mph 19.6 mph 0.00 in   Clear
10:15 AM 42.8 °F 35.1 °F 30.2 °F 61% 30.34 in 10.0 mi North 16.1 mph 19.6 mph 0.00 in   Clear
10:35 AM 44.6 °F 38.8 °F 30.2 °F 57% 30.35 in 10.0 mi North 11.5 mph - 0.00 in   Clear
10:55 AM 44.6 °F 38.8 °F 30.2 °F 57% 30.35 in 10.0 mi North 11.5 mph 16.1 mph 0.00 in   Clear
11:15 AM 46.4 °F 41.5 °F 28.4 °F 50% 30.35 in 10.0 mi North 10.4 mph - 0.00 in   Clear
11:35 AM 46.4 °F 41.1 °F 28.4 °F 50% 30.34 in 10.0 mi NNW 11.5 mph 18.4 mph 0.00 in   Clear
11:55 AM 48.2 °F - 28.4 °F 46% 30.34 in 10.0 mi North 11.5 mph 17.3 mph 0.00 in   Clear
12:15 PM 48.2 °F - 28.4 °F 46% 30.34 in 10.0 mi NNW 10.4 mph 20.7 mph 0.00 in   Clear
12:35 PM 50.0 °F - 28.4 °F 43% 30.34 in 10.0 mi NNW 10.4 mph 16.1 mph 0.00 in   Clear
12:55 PM 50.0 °F - 28.4 °F 43% 30.34 in 10.0 mi North 11.5 mph - 0.00 in   Clear
1:15 PM 51.8 °F - 28.4 °F 41% 30.33 in 10.0 mi NNW 9.2 mph - 0.00 in   Clear
1:55 PM 53.6 °F - 28.4 °F 38% 30.32 in 10.0 mi North 15.0 mph 18.4 mph 0.00 in   Clear
2:15 PM 53.6 °F - 26.6 °F 35% 30.32 in 10.0 mi NNW 10.4 mph - 0.00 in   Clear
2:35 PM 53.6 °F - 26.6 °F 35% 30.32 in 10.0 mi North 11.5 mph - 0.00 in   Clear
3:15 PM 53.6 °F - 28.4 °F 38% 30.31 in 10.0 mi North 12.7 mph 18.4 mph 0.00 in   Clear
3:35 PM 55.4 °F - 28.4 °F 36% 30.30 in 10.0 mi North 13.8 mph - 0.00 in   Clear
3:55 PM 55.4 °F - 28.4 °F 36% 30.30 in 10.0 mi North 11.5 mph - 0.00 in   Clear
4:15 PM 55.4 °F - 28.4 °F 36% 30.29 in 10.0 mi North 8.1 mph - 0.00 in   Clear
4:35 PM 55.4 °F - 28.4 °F 36% 30.29 in 10.0 mi WNW 5.8 mph 18.4 mph 0.00 in   Clear
4:55 PM 55.4 °F - 26.6 °F 33% 30.29 in 10.0 mi North 10.4 mph 16.1 mph 0.00 in   Clear
5:15 PM 55.4 °F - 26.6 °F 33% 30.29 in 10.0 mi NW 8.1 mph - 0.00 in   Clear
5:35 PM 55.4 °F - 26.6 °F 33% 30.28 in 10.0 mi North 6.9 mph - 0.00 in   Clear
5:55 PM 55.4 °F - 26.6 °F 33% 30.28 in 10.0 mi NNW 8.1 mph - 0.00 in   Clear
6:15 PM 55.4 °F - 26.6 °F 33% 30.28 in 10.0 mi North 10.4 mph - 0.00 in   Clear
6:35 PM 53.6 °F - 26.6 °F 35% 30.28 in 10.0 mi North 9.2 mph - 0.00 in   Clear
6:55 PM 53.6 °F - 26.6 °F 35% 30.28 in 10.0 mi North 6.9 mph - 0.00 in   Clear
7:15 PM 51.8 °F - 26.6 °F 38% 30.28 in 10.0 mi North 5.8 mph - 0.00 in   Clear
7:35 PM 48.2 °F - 26.6 °F 43% 30.27 in 10.0 mi North 5.8 mph - 0.00 in   Clear
7:55 PM 46.4 °F 44.3 °F 26.6 °F 46% 30.28 in 10.0 mi NNW 4.6 mph - 0.00 in   Clear
8:15 PM 46.4 °F 43.5 °F 26.6 °F 46% 30.28 in 10.0 mi NNW 5.8 mph - 0.00 in   Clear
8:35 PM 46.4 °F 43.5 °F 26.6 °F 46% 30.28 in 10.0 mi NNW 5.8 mph - 0.00 in   Clear
8:55 PM 42.8 °F 39.3 °F 26.6 °F 53% 30.28 in 10.0 mi NW 5.8 mph - 0.00 in   Clear
9:15 PM 37.4 °F 33.8 °F 23.0 °F 56% 30.28 in 10.0 mi NW 4.6 mph - 0.00 in   Clear
9:35 PM 37.4 °F 32.8 °F 23.0 °F 56% 30.29 in 10.0 mi NW 5.8 mph - 0.00 in   Clear
9:55 PM 37.4 °F 33.8 °F 23.0 °F 56% 30.29 in 10.0 mi NW 4.6 mph - 0.00 in   Clear
10:15 PM 37.4 °F 33.8 °F 24.8 °F 60% 30.29 in 10.0 mi NW 4.6 mph - 0.00 in   Clear
10:35 PM 35.6 °F 31.7 °F 24.8 °F 65% 30.29 in 10.0 mi NW 4.6 mph - 0.00 in   Clear
10:55 PM 35.6 °F 31.7 °F 23.0 °F 60% 30.30 in 10.0 mi NW 4.6 mph - 0.00 in   Clear
11:15 PM 35.6 °F 30.7 °F 23.0 °F 60% 30.30 in 10.0 mi NW 5.8 mph - 0.00 in   Clear
11:35 PM 33.8 °F 29.6 °F 23.0 °F 65% 30.30 in 10.0 mi WNW 4.6 mph - 0.00 in   Clear
11:55 PM 32.0 °F 27.5 °F 23.0 °F 69% 30.30 in 10.0 mi WNW 4.6 mph - 0.00 in   Clear